Wakefield, VA

5:51 AM EST on December 09, 2019 (GMT -0500)
Wakefield Municipal

Weather History for KAKQ - October, 2019

Change the Weather History Date:

Friday, October 18, 2019

  Actual Average (WUND) Record (WUND)
Temperature  
Mean Temperature 50 °F -  
Max Temperature 66 °F - - (-1)
Min Temperature 37 °F - - (-1)
Degree Days  
Heating Degree Days 14    
Moisture  
Dew Point 38 °F    
Average Humidity 67    
Maximum Humidity 92    
Minimum Humidity 33    
Precipitation  
Precipitation 0.00 in - - ()
Sea Level Pressure  
Sea Level Pressure 29.99 in    
Wind  
Wind Speed 2 mph (WNW)    
Max Wind Speed 9 mph    
Max Gust Speed -    
Visibility 10 miles    
Events      
Averages and records for this station are not official NWS values.
T = Trace of Precipitation, MM = Missing Value Source: NWS Daily Summary

Daily Weather History Graph

Daily Weather History Graph

Search for Another Location

Airport or City:

Astronomy

Oct. 18, 2019 Rise Set
Actual Time 7:18 AM EDT 6:27 PM EDT
Civil Twilight 6:51 AM EDT 6:53 PM EDT
Nautical Twilight 6:21 AM EDT 7:23 PM EDT
Astronomical Twilight 5:51 AM EDT 7:53 PM EDT
Moon 9:47 PM EDT (10/18) 11:43 AM EDT (10/18)
Length of Visible Light 12h 01m
Length of Day
11h 09m
Waning Gibbous, 79% of the Moon is Illuminated
Oct 18
Waning Gibbous
Oct 21
Last Quarter
Oct 27
New
Nov 4
First Quarter
Nov 12
Full

Hourly Weather History & Observations

Time (EDT) Temp. Windchill Dew Point Humidity Pressure Visibility Wind Dir Wind Speed Gust Speed Precip Events Conditions
12:54 AM 46.9 °F - 37.0 °F 68% 29.88 in 10.0 mi Calm Calm - N/A   Clear
1:54 AM 45.0 °F - 37.0 °F 74% 29.88 in 10.0 mi Calm Calm - N/A   Clear
2:54 AM 43.0 °F - 37.0 °F 80% 29.91 in 10.0 mi Calm Calm - N/A   Clear
3:54 AM 39.9 °F - 37.0 °F 89% 29.92 in 10.0 mi Calm Calm - N/A   Clear
4:54 AM 39.9 °F - 36.0 °F 86% 29.93 in 10.0 mi Calm Calm - N/A   Clear
5:54 AM 37.9 °F - 35.1 °F 89% 29.96 in 10.0 mi Calm Calm - N/A   Clear
6:54 AM 37.9 °F - 35.1 °F 89% 29.98 in 10.0 mi Calm Calm - N/A   Clear
7:54 AM 39.9 °F 37.8 °F 36.0 °F 86% 30.00 in 10.0 mi West 3.5 mph - N/A   Clear
8:54 AM 48.0 °F - 37.9 °F 68% 30.01 in 10.0 mi WSW 3.5 mph - N/A   Clear
9:54 AM 55.0 °F - 39.0 °F 55% 30.01 in 10.0 mi NNW 3.5 mph - N/A   Clear
10:54 AM 57.9 °F - 37.0 °F 46% 30.01 in 10.0 mi Variable 6.9 mph - N/A   Clear
11:54 AM 60.1 °F - 34.0 °F 38% 30.01 in 10.0 mi Variable 6.9 mph - N/A   Clear
12:54 PM 62.1 °F - 35.1 °F 37% 30.00 in 10.0 mi NW 8.1 mph - N/A   Clear
1:54 PM 63.0 °F - 35.1 °F 35% 29.99 in 10.0 mi WNW 8.1 mph - N/A   Clear
2:54 PM 64.9 °F - 35.1 °F 33% 29.97 in 10.0 mi Variable 5.8 mph - N/A   Clear
3:54 PM 64.0 °F - 35.1 °F 34% 29.99 in 10.0 mi Variable 5.8 mph - N/A   Clear
4:54 PM 64.9 °F - 37.0 °F 36% 30.00 in 10.0 mi West 9.2 mph - N/A   Clear
5:54 PM 63.0 °F - 39.9 °F 43% 30.02 in 10.0 mi West 3.5 mph - N/A   Clear
6:54 PM 51.1 °F - 45.0 °F 80% 30.02 in 10.0 mi Calm Calm - N/A   Clear
7:54 PM 46.9 °F - 44.1 °F 90% 30.04 in 10.0 mi Calm Calm - N/A   Clear
8:54 PM 45.0 °F - 42.1 °F 90% 30.04 in 10.0 mi Calm Calm - N/A   Clear
9:54 PM 44.1 °F - 41.0 °F 89% 30.06 in 10.0 mi Calm Calm - N/A   Clear
10:54 PM 42.1 °F - 39.9 °F 92% 30.06 in 10.0 mi Calm Calm - N/A   Clear
11:54 PM 42.1 °F - 39.0 °F 89% 30.06 in 10.0 mi Calm Calm - N/A   Clear